Location: Moore
(46.9751°N, 109.6952°W)
Time: 17:16:32
(UTC+00:00)

Envisat - Visible Passes

Search period start: 19 January 2022 00:00
Search period end: 29 January 2022 00:00
Orbit: 764 x 766 km, 98.2° (Epoch: 19 January)

Date Brightness Start Highest point End Pass type
(mag) Time Alt. Az. Time Alt. Az. Time Alt. Az.
19 Jan 3.5 12:01:55 10° NNE 12:06:57 58° E 12:11:57 10° S visible
19 Jan 4.1 13:41:45 10° NNW 13:45:34 22° WNW 13:49:23 10° WSW visible
20 Jan 6.3 01:02:49 10° W 01:04:11 11° W 01:05:33 10° WNW visible
20 Jan 4.8 11:25:31 10° NE 11:29:52 28° E 11:34:12 10° SSE visible
20 Jan 3.3 13:04:15 10° N 13:09:00 42° WNW 13:13:46 10° SW visible
21 Jan 5.8 10:50:08 10° ENE 10:52:34 13° E 10:55:00 10° ESE visible
21 Jan 2.8 12:27:09 10° NNE 12:32:16 85° WNW 12:37:21 10° SSW visible
21 Jan 4.6 14:07:57 10° NNW 14:10:30 14° NW 14:13:04 10° W visible
22 Jan 3.9 11:50:25 10° NNE 11:55:19 46° E 12:00:11 10° S visible
22 Jan 3.9 13:29:55 10° N 13:34:05 26° WNW 13:38:16 10° WSW visible
23 Jan 6.0 00:49:46 10° WSW 00:52:25 14° W 00:55:05 10° NW visible
23 Jan 5.2 11:14:12 10° NE 11:18:10 22° E 11:22:07 10° SE visible
23 Jan 3.1 12:52:33 10° N 12:57:29 52° WNW 13:02:23 10° SW visible
24 Jan 6.0 10:40:04 10° ENE 10:40:48 10° E 10:41:34 10° E visible
24 Jan 3.0 12:15:33 10° NNE 12:20:40 78° ESE 12:25:45 10° S visible
24 Jan 4.4 13:55:52 10° NNW 13:59:04 17° WNW 14:02:17 10° W visible
25 Jan 4.3 11:38:57 10° NNE 11:43:40 37° E 11:48:20 10° SSE visible
25 Jan 3.6 13:18:07 10° N 13:22:36 32° WNW 13:27:04 10° SW visible
26 Jan 5.9 00:37:17 10° SW 00:40:40 18° W 00:44:06 10° NW visible
26 Jan 5.5 11:03:00 10° NE 11:06:27 18° E 11:09:53 10° SE visible
26 Jan 2.9 12:40:53 10° N 12:45:55 65° WNW 12:50:57 10° SSW visible
27 Jan 3.4 12:04:00 10° NNE 12:09:03 62° ESE 12:14:05 10° S visible
27 Jan 4.2 13:43:55 10° NNW 13:47:38 21° WNW 13:51:19 10° WSW visible
28 Jan 6.5 01:05:49 10° W 01:06:19 10° W 01:06:50 10° W visible
28 Jan 4.7 11:27:32 10° NNE 11:31:59 30° E 11:36:24 10° SSE visible
28 Jan 3.4 13:06:22 10° N 13:11:05 39° WNW 13:15:47 10° SW visible
